Location: Colebrook
(42.0017°N, 73.0973°W)
Time: 04:13:19
(UTC-04:00)

S-56A Canister/Altair - Visible Passes

Search period start: 21 October 2021 00:00
Search period end: 31 October 2021 00:00
Orbit: 632 x 2501 km, 38.9° (Epoch: 20 October)

Date Brightness Start Highest point End Pass type
(mag) Time Alt. Az. Time Alt. Az. Time Alt. Az.
21 Oct 10.4 18:51:00 10° W 19:05:12 63° SSW 19:19:24 10° SE visible
21 Oct 10.9 20:58:01 10° W 21:10:25 33° SW 21:18:15 19° S visible
22 Oct 10.4 18:17:46 10° W 18:31:40 66° SSW 18:46:16 10° ESE visible
22 Oct 10.9 20:24:19 10° W 20:37:11 36° SW 20:48:00 13° SSE visible
23 Oct 10.9 19:50:46 10° W 20:03:52 40° SW 20:16:35 10° SSE visible
23 Oct 11.5 22:02:11 10° WSW 22:07:43 13° SW 22:13:02 10° SSW visible
24 Oct 10.8 19:17:20 10° W 19:30:30 44° SW 19:43:48 10° SSE visible
24 Oct 11.5 21:27:03 10° W 21:34:43 16° SW 21:42:04 10° SSW visible
25 Oct 10.8 18:44:01 10° W 18:57:06 47° SSW 19:10:53 10° SE visible
25 Oct 11.5 20:52:34 10° W 21:01:38 19° SW 21:10:27 10° SSW visible
26 Oct 10.8 18:10:50 10° W 18:23:40 51° SSW 18:37:51 10° SE visible
26 Oct 11.6 20:18:29 10° W 20:28:30 22° SW 20:38:27 10° S visible
27 Oct 11.5 19:44:40 10° W 19:55:19 25° SW 20:06:12 10° S visible
28 Oct 11.5 19:11:04 10° W 19:22:05 28° SW 19:33:43 10° S visible
29 Oct 11.5 18:37:39 10° W 18:48:48 31° SW 19:01:03 10° SSE visible
30 Oct 11.4 18:04:23 10° W 18:15:31 34° SW 18:28:13 10° SSE visible
